Location: Unspecified
(0.0000°N, 0.0000°E)
Time: 23:03:47
(UTC+00:00)

N. Korean satellite - Pass Details

Date: 20 July 2019
Orbit: 456 x 508 km, 97.2° (Epoch: 21 July)

Event Time Altitude Azimuth Distance (km) Brightness Sun altitude
Rises 04:43:00 0° 48° (NE) 2,598 11.6 -19.4°
Reaches altitude 10° 04:46:34 10° 85° (E) 1,718 10.5 -18.6°
Maximum altitude 04:47:36 11° 101° (E) 1,657 10.1 -18.4°
Drops below altitude 10° 04:48:39 10° 118° (ESE) 1,719 9.9 -18.1°
Sets 04:52:13 0° 155° (SSE) 2,602 10.3 -17.3°
